Regional Weather Roundup
Issued by NWS Midland/Odessa, TX

Skip options and go directly to product.
Home | Oldest Version | Next Version | Current Version | All | Text Only | Save Text | Print | Product List | Glossary On

Skip product version selection by date and time.   
016
ASUS44 KMAF 291610
RWRMAF
MIDLAND AREA WEATHER ROUNDUP
NATIONAL WEATHER SERVICE MIDLAND TX
1100 AM CDT WED JUN 29 2016

...IN SOUTHWEST TEXAS AND SOUTHEAST NEW MEXICO...

CITY           SKY/WX    TMP DP  RH WIND       PRES   REMARKS
ALPINE         SUNNY     78  60  53 E3        30.30S
ANDREWS        FAIR      81  60  48 SE3       30.20F
ARTESIA        SUNNY     82  63  51 CALM      30.21S
BIG SPRING     CLOUDY    75  63  65 CALM      30.19F
CARLSBAD       SUNNY     81  63  54 MISG      30.18F
DRYDEN           N/A     84  66  54 E8        30.11S
FORT STOCKTON  SUNNY     83  64  52 NE5       30.18R
GUAD PASS      SUNNY     75  63  66 E15       30.33R
HOBBS          SUNNY     82  59  44 VRB6      30.23S
MARFA          MOSUNNY  N/A N/A N/A N3        30.27F
MIDLAND AIRPK  SUNNY     82  66  58 N6        30.19S
MIDLAND INTL   SUNNY     82  64  54 E6        30.18S
ODESSA         SUNNY     82  62  50 SE7       30.19F
PECOS          SUNNY     81  66  59 N6        30.16S
PRESIDIO       FAIR      83  62  48 CALM      30.14S
SEMINOLE       SUNNY     80  62  53 CALM      30.22F
SNYDER           N/A     80  64  58 N5        30.17S
WINK           SUNNY     83  64  52 E5        30.16S
$$
...OTHER STATIONS IN TEXAS...

CITY           SKY/WX    TMP DP  RH WIND       PRES   REMARKS
ABILENE        SUNNY     81  70  69 W3        30.12F
AMARILLO       SUNNY     79  57  46 E13       30.21F
AUSTIN         MOSUNNY   83  73  72 CALM      30.04S
BROWNSVILLE    PTSUNNY   89  75  63 S3        29.99S
CORPUS CHRISTI PTSUNNY   87  75  67 CALM      30.01S
DALLAS FTW     PTSUNNY   87  69  54 CALM      30.05F
DEL RIO        PTSUNNY   84  70  62 NE6       30.06S
EL PASO        MOSUNNY   80  59  48 N9        30.21S
HOUSTON INT    MOSUNNY   86  75  69 N7        29.98F
LUBBOCK        MOSUNNY   81  62  52 NE14      30.22R
SAN ANGELO     SUNNY     83  70  64 N7        30.12F
SAN ANTONIO    MOSUNNY   85  69  58 VRB3      30.05F
WACO           PTSUNNY   85  70  60 MISG      30.04F
WICHITA FALLS  NOT AVBL
$$
...OTHER LOCATIONS IN NEW MEXICO...

CITY           SKY/WX    TMP DP  RH WIND       PRES   REMARKS
ALAMAGORDO     SUNNY     81  54  39 SW5       30.25S
ALBUQUERQUE    CLOUDY    76  53  44 SW8       30.33S
CANNON AFB     SUNNY     82  60  48 W10       30.23F
CLOVIS         SUNNY     81  59  47 W7        30.24R
HOLLOMAN AFB   SUNNY     82  56  41 W12       30.23R
ROSWELL        SUNNY     84  58  40 VRB6      30.20F
RUIDOSO          N/A     73  43  33 SE3       30.43S
SANTA FE       SUNNY     75  49  39 CALM      30.39S
TRUTH OR CONSE SUNNY     79  56  45 E6        30.28F
TUCUMCARI      SUNNY     83  57  41 VRB3      30.21F
$$

USA.gov is the U.S. government's official web portal to all federal, state and local government web resources and services.